Location: Misciano
(43.5000°N, 11.9500°E)
Time: 10:14:53
(UTC+00:00)

Cosmos 1805 Rocket - Pass Details

Date: 13 August 2020
Orbit: 605 x 630 km, 82.5° (Epoch: 20 September)

Event Time Altitude Azimuth Distance (km) Brightness Sun altitude
Rises 18:39:37 0° 176° (S) 2,894 6.7 -4.4°
Reaches altitude 10° 18:41:52 10° 172° (S) 1,995 5.9 -4.8°
Maximum altitude 18:46:12 57° 94° (E) 745 3.7 -5.5°
Drops below altitude 10° 18:50:35 10° 17° (NNE) 2,019 6.3 -6.2°
Sets 18:52:51 0° 13° (NNE) 2,933 7.2 -6.6°
